Starlink 30809

operational
NORAD ID: 58183 Int'l Des: 2023-167 Owner: SPXS Country: US Constellation: starlink
LEOCIRCULAR

About Starlink 30809

Description loading...

Live Position

Loading 3D Globe...

Upcoming Passes

Altitude History

Altitude vs Time

uPlot chart will show altitude changes over time

Two-Line Element Set

1 58183U 23167J 26034.20284578 -.00004965 00000-0 -35256-3 0 9995
2 58183 43.0047 333.6625 0001215 263.7445 96.3259 15.02554048125762
Epoch: Feb 3, 2026 • Age: 17 hours

Current Status

Altitude 560.3 km
Velocity 7.58 km/s
Sub-Earth Point -9.12°S, 149.64°W
Launch Date Oct 30, 2023
Age 2.2 years
Type internet

Technical Details

Classification Payload
Mass 730.00 kg
Dry Mass 700.00 kg
Total Mass 730.00 kg
Length 0.30 m
Diameter 4.10 m
Span 29.00 m
Shape Box + pan
Manufacturer SPXS
Bus Type Starlink V2M
Phase Status In Orbit
Owner/State SPXS/US

Large Constellations

Loading constellations...